Time,TemperatureF,DewpointF,PressureIn,WindDirection,WindDirectionDegrees,WindSpeedMPH,WindSpeedGustMPH,Humidity,HourlyPrecipIn,Conditions,Clouds,dailyrainin,SoftwareType,DateUTC
2013-04-03 00:03:00,42.4,30.7,30.08,South,190,0.0,0.0,63,0.00,CLR,SCT,0.00,WeatherDisplay:10.37,2013-04-03 07:03:00,
2013-04-03 00:08:00,42.4,30.3,30.08,South,191,0.0,0.0,62,0.00,CLR,SCT,0.00,WeatherDisplay:10.37,2013-04-03 07:08:00,
2013-04-03 00:13:00,42.1,30.0,30.08,South,190,0.0,0.0,62,0.00,CLR,SCT,0.00,WeatherDisplay:10.37,2013-04-03 07:13:00,
2013-04-03 00:18:00,41.9,29.8,30.08,South,190,0.0,0.0,62,0.00,CLR,SCT,0.00,WeatherDisplay:10.37,2013-04-03 07:18:00,
2013-04-03 00:23:00,41.4,30.1,30.08,South,190,4.6,4.6,64,0.00,CLR,SCT,0.00,WeatherDisplay:10.37,2013-04-03 07:23:00,
2013-04-03 00:29:00,41.0,29.7,30.08,South,190,3.5,3.5,64,0.00,CLR,SCT,0.00,WeatherDisplay:10.37,2013-04-03 07:29:00,
2013-04-03 00:34:00,40.6,30.5,30.08,South,185,3.5,3.5,67,0.00,CLR,SCT,0.00,WeatherDisplay:10.37,2013-04-03 07:34:00,
2013-04-03 00:39:00,40.5,30.7,30.08,South,185,0.0,0.0,68,0.00,CLR,SCT,0.00,WeatherDisplay:10.37,2013-04-03 07:39:00,
2013-04-03 00:44:00,40.3,29.8,30.08,South,185,0.0,0.0,66,0.00,CLR,SCT,0.00,WeatherDisplay:10.37,2013-04-03 07:44:00,
2013-04-03 00:49:00,40.1,29.3,30.08,South,185,0.0,0.0,65,0.00,CLR,SCT,0.00,WeatherDisplay:10.37,2013-04-03 07:49:00,
2013-04-03 00:55:00,39.9,29.5,30.08,South,185,0.0,0.0,66,0.00,CLR,SCT,0.00,WeatherDisplay:10.37,2013-04-03 07:55:00,
2013-04-03 01:00:00,39.7,29.3,30.08,South,185,0.0,0.0,66,0.00,CLR,SCT,0.00,WeatherDisplay:10.37,2013-04-03 08:00:00,
2013-04-03 01:05:00,39.6,29.1,30.08,South,185,0.0,0.0,66,0.00,CLR,SCT,0.00,WeatherDisplay:10.37,2013-04-03 08:05:00,
2013-04-03 01:10:00,39.4,29.3,30.08,South,185,0.0,0.0,67,0.00,CLR,SCT,0.00,WeatherDisplay:10.37,2013-04-03 08:10:00,
2013-04-03 01:15:00,39.0,29.7,30.08,South,185,3.1,0.0,69,0.00,CLR,SCT,0.00,WeatherDisplay:10.37,2013-04-03 08:15:00,
2013-04-03 01:20:00,38.8,29.9,30.11,South,185,3.5,3.6,70,0.00,CLR,SCT,0.00,WeatherDisplay:10.37,2013-04-03 08:20:00,
2013-04-03 01:26:00,38.8,30.6,30.11,South,185,3.5,3.5,72,0.00,CLR,SCT,0.00,WeatherDisplay:10.37,2013-04-03 08:26:00,
2013-04-03 01:31:00,38.7,30.1,30.11,South,185,0.0,0.0,71,0.00,CLR,SCT,0.00,WeatherDisplay:10.37,2013-04-03 08:31:00,
2013-04-03 01:36:00,38.5,29.9,30.11,South,185,0.0,0.0,71,0.00,CLR,SCT,0.00,WeatherDisplay:10.37,2013-04-03 08:36:00,
2013-04-03 01:41:00,38.3,29.4,30.11,South,185,0.0,0.0,70,0.00,CLR,SCT,0.00,WeatherDisplay:10.37,2013-04-03 08:41:00,
2013-04-03 01:46:00,37.9,29.0,30.11,South,185,0.0,0.0,70,0.00,CLR,SCT,0.00,WeatherDisplay:10.37,2013-04-03 08:46:00,
2013-04-03 01:51:00,37.8,29.2,30.11,South,185,0.0,0.0,71,0.00,CLR,SCT,0.00,WeatherDisplay:10.37,2013-04-03 08:51:00,
2013-04-03 01:57:00,37.8,29.2,30.11,South,187,0.0,0.0,71,0.00,CLR,SCT,0.00,WeatherDisplay:10.37,2013-04-03 08:57:00,
2013-04-03 02:02:00,37.6,29.4,30.11,South,187,0.0,0.0,72,0.00,CLR,SCT,0.00,WeatherDisplay:10.37,2013-04-03 09:02:00,
2013-04-03 02:07:00,37.0,28.8,30.11,South,187,0.0,0.0,72,0.00,CLR,SCT,0.00,WeatherDisplay:10.37,2013-04-03 09:07:00,
2013-04-03 02:13:00,37.0,29.2,30.11,South,187,0.0,0.0,73,0.00,CLR,SCT,0.00,WeatherDisplay:10.37,2013-04-03 09:13:00,
2013-04-03 02:18:00,37.0,29.8,30.11,South,187,0.0,0.0,75,0.00,CLR,SCT,0.00,WeatherDisplay:10.37,2013-04-03 09:18:00,
2013-04-03 02:23:00,36.9,29.7,30.11,South,187,0.0,0.0,75,0.00,CLR,SCT,0.00,WeatherDisplay:10.37,2013-04-03 09:23:00,
2013-04-03 02:28:00,36.5,29.0,30.11,South,187,0.0,0.0,74,0.00,CLR,SCT,0.00,WeatherDisplay:10.37,2013-04-03 09:28:00,
2013-04-03 02:33:00,35.8,28.3,30.11,South,187,0.0,0.0,74,0.00,CLR,SCT,0.00,WeatherDisplay:10.37,2013-04-03 09:33:00,
2013-04-03 02:38:00,35.4,28.6,30.11,South,187,0.0,0.0,76,0.00,CLR,SCT,0.00,WeatherDisplay:10.37,2013-04-03 09:38:00,
2013-04-03 02:43:00,35.4,29.9,30.11,South,187,0.0,0.0,80,0.00,CLR,SCT,0.00,WeatherDisplay:10.37,2013-04-03 09:43:00,
2013-04-03 02:48:00,35.2,29.4,30.11,South,187,0.0,0.0,79,0.00,CLR,SCT,0.00,WeatherDisplay:10.37,2013-04-03 09:48:00,
2013-04-03 02:53:00,34.9,28.7,30.11,South,187,0.0,0.0,78,0.00,CLR,SCT,0.00,WeatherDisplay:10.37,2013-04-03 09:53:00,
2013-04-03 02:58:00,34.7,28.5,30.11,South,187,0.0,0.0,78,0.00,CLR,SCT,0.00,WeatherDisplay:10.37,2013-04-03 09:58:00,
2013-04-03 03:04:00,34.5,28.1,30.11,South,187,0.0,0.0,77,0.00,CLR,SCT,0.00,WeatherDisplay:10.37,2013-04-03 10:04:00,
2013-04-03 03:09:00,34.3,27.6,30.11,South,187,0.0,0.0,76,0.00,CLR,SCT,0.00,WeatherDisplay:10.37,2013-04-03 10:09:00,
2013-04-03 03:14:00,34.3,27.6,30.11,South,187,0.0,0.0,76,0.00,CLR,SCT,0.00,WeatherDisplay:10.37,2013-04-03 10:14:00,
2013-04-03 03:19:00,34.2,27.7,30.11,South,187,0.0,0.0,77,0.00,CLR,SCT,0.00,WeatherDisplay:10.37,2013-04-03 10:19:00,
2013-04-03 03:24:00,33.8,27.4,30.11,South,187,0.0,0.0,77,0.00,CLR,SCT,0.00,WeatherDisplay:10.37,2013-04-03 10:24:00,
2013-04-03 03:29:00,33.8,27.4,30.11,South,187,0.0,0.0,77,0.00,CLR,SCT,0.00,WeatherDisplay:10.37,2013-04-03 10:29:00,
2013-04-03 03:34:00,33.6,27.5,30.08,South,187,0.0,0.0,78,0.00,CLR,SCT,0.00,WeatherDisplay:10.37,2013-04-03 10:34:00,
2013-04-03 03:40:00,33.4,27.3,30.08,South,187,0.0,0.0,78,0.00,CLR,SCT,0.00,WeatherDisplay:10.37,2013-04-03 10:40:00,
2013-04-03 03:45:00,33.3,27.5,30.08,South,187,0.0,0.0,79,0.00,CLR,SCT,0.00,WeatherDisplay:10.37,2013-04-03 10:45:00,
2013-04-03 03:50:00,33.1,27.0,30.08,South,187,0.0,0.0,78,0.00,CLR,SCT,0.00,WeatherDisplay:10.37,2013-04-03 10:50:00,
2013-04-03 03:55:00,32.5,26.4,30.08,South,185,0.0,0.0,78,0.00,CLR,SCT,0.00,WeatherDisplay:10.37,2013-04-03 10:55:00,
2013-04-03 04:00:00,32.2,26.4,30.08,South,185,0.0,0.0,79,0.00,CLR,SCT,0.00,WeatherDisplay:10.37,2013-04-03 11:00:00,
2013-04-03 04:06:00,32.2,26.7,30.08,South,186,0.0,0.0,80,0.00,CLR,SCT,0.00,WeatherDisplay:10.37,2013-04-03 11:06:00,
2013-04-03 04:11:00,32.0,26.2,30.08,South,186,0.0,0.0,79,0.00,CLR,SCT,0.00,WeatherDisplay:10.37,2013-04-03 11:11:00,
2013-04-03 04:17:00,31.8,26.0,30.08,South,186,0.0,0.0,79,0.00,CLR,SCT,0.00,WeatherDisplay:10.37,2013-04-03 11:17:00,
2013-04-03 04:22:00,31.8,26.0,30.11,South,186,0.0,0.0,79,0.00,CLR,SCT,0.00,WeatherDisplay:10.37,2013-04-03 11:22:00,
2013-04-03 04:27:00,31.8,26.0,30.11,South,186,0.0,0.0,79,0.00,CLR,SCT,0.00,WeatherDisplay:10.37,2013-04-03 11:27:00,
2013-04-03 04:32:00,31.8,26.0,30.11,South,186,0.0,0.0,79,0.00,CLR,SCT,0.00,WeatherDisplay:10.37,2013-04-03 11:32:00,
2013-04-03 04:37:00,31.6,25.9,30.11,South,186,0.0,0.0,79,0.00,CLR,SCT,0.00,WeatherDisplay:10.37,2013-04-03 11:37:00,
2013-04-03 04:42:00,31.1,25.0,30.11,South,186,0.0,0.0,78,0.00,CLR,SCT,0.00,WeatherDisplay:10.37,2013-04-03 11:42:00,
2013-04-03 04:47:00,31.3,25.5,30.11,South,186,0.0,0.0,79,0.00,CLR,SCT,0.00,WeatherDisplay:10.37,2013-04-03 11:47:00,
2013-04-03 04:53:00,31.1,26.0,30.11,South,187,0.0,0.0,81,0.00,CLR,SCT,0.00,WeatherDisplay:10.37,2013-04-03 11:53:00,
2013-04-03 04:58:00,30.9,25.8,30.11,South,187,0.0,0.0,81,0.00,CLR,SCT,0.00,WeatherDisplay:10.37,2013-04-03 11:58:00,
2013-04-03 05:03:00,31.1,26.0,30.11,South,186,0.0,0.0,81,0.00,CLR,SCT,0.00,WeatherDisplay:10.37,2013-04-03 12:03:00,
2013-04-03 05:08:00,31.1,26.0,30.11,SE,134,0.0,0.0,81,0.00,CLR,SCT,0.00,WeatherDisplay:10.37,2013-04-03 12:08:00,
2013-04-03 05:13:00,30.7,25.3,30.11,SE,135,0.0,0.0,80,0.00,CLR,SCT,0.00,WeatherDisplay:10.37,2013-04-03 12:13:00,
2013-04-03 05:18:00,30.4,24.9,30.11,SE,135,0.0,0.0,80,0.00,CLR,SCT,0.00,WeatherDisplay:10.37,2013-04-03 12:18:00,
2013-04-03 05:23:00,30.4,24.9,30.11,SE,135,0.0,0.0,80,0.00,CLR,SCT,0.00,WeatherDisplay:10.37,2013-04-03 12:23:00,
2013-04-03 05:28:00,30.2,25.1,30.11,SE,135,0.0,0.0,81,0.00,CLR,SCT,0.00,WeatherDisplay:10.37,2013-04-03 12:28:00,
2013-04-03 05:33:00,30.2,24.8,30.08,SE,135,0.0,0.0,80,0.00,CLR,SCT,0.00,WeatherDisplay:10.37,2013-04-03 12:33:00,
2013-04-03 05:39:00,30.0,24.6,30.08,SE,135,0.0,0.0,80,0.00,CLR,SCT,0.00,WeatherDisplay:10.37,2013-04-03 12:39:00,
2013-04-03 05:44:00,30.0,24.9,30.08,SE,136,2.3,0.0,81,0.00,CLR,SCT,0.00,WeatherDisplay:10.37,2013-04-03 12:44:00,
2013-04-03 05:49:00,30.2,25.9,30.11,SE,136,0.0,0.0,84,0.00,CLR,SCT,0.00,WeatherDisplay:10.37,2013-04-03 12:49:00,
2013-04-03 05:54:00,29.8,25.6,30.11,SE,136,0.0,0.0,84,0.00,CLR,SCT,0.00,WeatherDisplay:10.37,2013-04-03 12:54:00,
2013-04-03 05:59:00,29.8,25.6,30.11,SE,136,0.0,0.0,84,0.00,CLR,SCT,0.00,WeatherDisplay:10.37,2013-04-03 12:59:00,
2013-04-03 06:04:00,30.0,25.8,30.08,SE,136,0.0,0.0,84,0.00,CLR,SCT,0.00,WeatherDisplay:10.37,2013-04-03 13:04:00,
2013-04-03 06:09:00,30.0,25.8,30.08,SE,136,0.0,0.0,84,0.00,CLR,SCT,0.00,WeatherDisplay:10.37,2013-04-03 13:09:00,
2013-04-03 06:14:00,30.4,26.1,30.08,SE,136,0.0,0.0,84,0.00,CLR,SCT,0.00,WeatherDisplay:10.37,2013-04-03 13:14:00,
2013-04-03 06:19:00,30.4,26.4,30.08,SE,137,0.0,0.0,85,0.00,CLR,SCT,0.00,WeatherDisplay:10.37,2013-04-03 13:19:00,
2013-04-03 06:25:00,30.2,26.2,30.08,SSE,161,0.0,0.0,85,0.00,CLR,SCT,0.00,WeatherDisplay:10.37,2013-04-03 13:25:00,
2013-04-03 06:30:00,30.2,26.8,30.08,SSE,161,2.3,2.3,87,0.00,CLR,SCT,0.00,WeatherDisplay:10.37,2013-04-03 13:30:00,
2013-04-03 06:35:00,29.7,26.0,30.11,SSE,161,0.0,0.0,86,0.00,CLR,SCT,0.00,WeatherDisplay:10.37,2013-04-03 13:35:00,
2013-04-03 06:40:00,29.3,25.4,30.11,SSE,165,2.3,0.0,85,0.00,CLR,SCT,0.00,WeatherDisplay:10.37,2013-04-03 13:40:00,
2013-04-03 06:45:00,29.5,26.1,30.11,SSW,207,3.5,3.5,87,0.00,CLR,SCT,0.00,WeatherDisplay:10.37,2013-04-03 13:45:00,
2013-04-03 06:50:00,29.8,27.0,30.11,SSW,207,3.5,3.5,89,0.00,CLR,SCT,0.00,WeatherDisplay:10.37,2013-04-03 13:50:00,
2013-04-03 06:55:00,30.4,28.1,30.11,SSW,208,3.5,3.5,91,0.00,CLR,SCT,0.00,WeatherDisplay:10.37,2013-04-03 13:55:00,
2013-04-03 07:00:00,30.7,28.7,30.11,SSW,196,2.3,0.0,92,0.00,CLR,SCT,0.00,WeatherDisplay:10.37,2013-04-03 14:00:00,
2013-04-03 07:05:00,31.1,29.3,30.11,SSW,196,0.0,0.0,93,0.00,CLR,SCT,0.00,WeatherDisplay:10.37,2013-04-03 14:05:00,
2013-04-03 07:10:00,30.7,29.0,30.11,SSW,198,3.5,3.5,93,0.00,CLR,SCT,0.00,WeatherDisplay:10.37,2013-04-03 14:10:00,
2013-04-03 07:15:00,30.7,29.0,30.11,SSW,198,0.0,0.0,93,0.00,CLR,SCT,0.00,WeatherDisplay:10.37,2013-04-03 14:15:00,
2013-04-03 07:20:00,31.1,29.3,30.11,SSW,198,0.0,0.0,93,0.00,CLR,SCT,0.00,WeatherDisplay:10.37,2013-04-03 14:20:00,
2013-04-03 07:25:00,32.0,30.5,30.11,SSW,209,2.3,2.3,94,0.00,CLR,SCT,0.00,WeatherDisplay:10.37,2013-04-03 14:25:00,
2013-04-03 07:30:00,32.5,31.3,30.11,SSW,209,2.3,0.0,95,0.00,CLR,SCT,0.00,WeatherDisplay:10.37,2013-04-03 14:30:00,
2013-04-03 07:35:00,33.1,31.8,30.11,SSW,209,0.0,0.0,95,0.00,CLR,SCT,0.00,WeatherDisplay:10.37,2013-04-03 14:35:00,
2013-04-03 07:41:00,33.6,32.3,30.11,SSW,209,0.0,0.0,95,0.00,CLR,SCT,0.00,WeatherDisplay:10.37,2013-04-03 14:41:00,
2013-04-03 07:46:00,34.5,33.2,30.11,SSW,209,0.0,0.0,95,0.00,CLR,SCT,0.00,WeatherDisplay:10.37,2013-04-03 14:46:00,
2013-04-03 07:51:00,35.2,34.2,30.11,SSW,209,0.0,0.0,96,0.00,CLR,SCT,0.00,WeatherDisplay:10.37,2013-04-03 14:51:00,
2013-04-03 07:56:00,36.3,35.3,30.11,SSW,207,0.0,0.0,96,0.00,CLR,SCT,0.00,WeatherDisplay:10.37,2013-04-03 14:56:00,
2013-04-03 08:01:00,37.2,35.7,30.11,SSW,206,0.0,0.0,94,0.00,CLR,SCT,0.00,WeatherDisplay:10.37,2013-04-03 15:01:00,
2013-04-03 08:06:00,38.1,34.3,30.11,South,180,2.3,0.0,86,0.00,CLR,SCT,0.00,WeatherDisplay:10.37,2013-04-03 15:06:00,
2013-04-03 08:11:00,39.2,34.5,30.11,SSE,153,3.5,3.5,83,0.00,CLR,SCT,0.00,WeatherDisplay:10.37,2013-04-03 15:11:00,
2013-04-03 08:16:00,40.1,33.8,30.11,SE,146,5.8,5.8,78,0.00,CLR,SCT,0.00,WeatherDisplay:10.37,2013-04-03 15:16:00,
2013-04-03 08:21:00,41.0,34.7,30.08,ESE,120,3.5,3.5,78,0.00,CLR,SCT,0.00,WeatherDisplay:10.37,2013-04-03 15:21:00,
2013-04-03 08:27:00,42.1,32.3,30.08,SSE,151,4.6,4.6,68,0.00,CLR,SCT,0.00,WeatherDisplay:10.37,2013-04-03 15:27:00,
2013-04-03 08:32:00,43.0,33.5,30.08,SE,146,3.5,3.6,69,0.00,CLR,SCT,0.00,WeatherDisplay:10.37,2013-04-03 15:32:00,
2013-04-03 08:37:00,43.7,33.1,30.08,SE,137,5.8,5.8,66,0.00,CLR,SCT,0.00,WeatherDisplay:10.37,2013-04-03 15:37:00,
2013-04-03 08:42:00,44.8,32.1,30.08,ESE,113,5.8,5.8,61,0.00,CLR,SCT,0.00,WeatherDisplay:10.37,2013-04-03 15:42:00,
2013-04-03 08:47:00,45.9,31.5,30.08,SSE,150,4.6,4.6,57,0.00,CLR,SCT,0.00,WeatherDisplay:10.37,2013-04-03 15:47:00,
2013-04-03 08:52:00,46.9,30.7,30.08,SSE,158,5.8,5.8,53,0.00,CLR,SCT,0.00,WeatherDisplay:10.37,2013-04-03 15:52:00,
2013-04-03 08:58:00,47.3,30.1,30.08,SE,144,5.8,5.8,51,0.00,CLR,SCT,0.00,WeatherDisplay:10.37,2013-04-03 15:58:00,
2013-04-03 09:03:00,47.5,30.2,30.08,SE,126,5.8,5.8,51,0.00,CLR,SCT,0.00,WeatherDisplay:10.37,2013-04-03 16:03:00,
2013-04-03 09:08:00,48.0,30.2,30.08,SSE,162,4.6,4.6,50,0.00,CLR,SCT,0.00,WeatherDisplay:10.37,2013-04-03 16:08:00,
2013-04-03 09:14:00,48.9,30.6,30.08,SE,142,5.8,5.8,49,0.00,CLR,SCT,0.00,WeatherDisplay:10.37,2013-04-03 16:14:00,
2013-04-03 09:19:00,49.6,30.7,30.08,ESE,122,5.8,5.8,48,0.00,CLR,SCT,0.00,WeatherDisplay:10.37,2013-04-03 16:19:00,
2013-04-03 09:24:00,50.2,30.7,30.08,SE,141,5.8,5.8,47,0.00,CLR,SCT,0.00,WeatherDisplay:10.37,2013-04-03 16:24:00,
2013-04-03 09:30:00,51.3,31.2,30.08,East,97,7.6,7.6,46,0.00,CLR,SCT,0.00,WeatherDisplay:10.37,2013-04-03 16:30:00,
2013-04-03 09:35:00,52.3,31.0,30.08,ESE,113,5.8,5.8,44,0.00,CLR,SCT,0.00,WeatherDisplay:10.37,2013-04-03 16:35:00,
2013-04-03 09:40:00,52.7,30.8,30.08,ESE,121,5.8,5.8,43,0.00,CLR,SCT,0.00,WeatherDisplay:10.37,2013-04-03 16:40:00,
2013-04-03 09:45:00,53.2,31.3,30.08,East,90,5.8,5.8,43,0.00,CLR,SCT,0.00,WeatherDisplay:10.37,2013-04-03 16:45:00,
2013-04-03 09:51:00,54.3,31.1,30.08,East,95,5.8,5.8,41,0.00,CLR,SCT,0.00,WeatherDisplay:10.37,2013-04-03 16:51:00,
2013-04-03 09:56:00,55.0,31.1,30.08,ESE,102,5.8,5.8,40,0.00,CLR,SCT,0.00,WeatherDisplay:10.37,2013-04-03 16:56:00,
2013-04-03 10:01:00,55.6,31.0,30.08,SE,131,8.3,8.3,39,0.00,CLR,SCT,0.00,WeatherDisplay:10.37,2013-04-03 17:01:00,
2013-04-03 10:06:00,55.9,31.3,30.08,SE,137,5.8,6.7,39,0.00,CLR,SCT,0.00,WeatherDisplay:10.37,2013-04-03 17:06:00,
2013-04-03 10:12:00,56.3,31.0,30.08,East,87,5.8,5.8,38,0.00,CLR,SCT,0.00,WeatherDisplay:10.37,2013-04-03 17:12:00,
2013-04-03 10:17:00,57.6,32.1,30.08,ESE,113,8.1,8.1,38,0.00,CLR,SCT,0.00,WeatherDisplay:10.37,2013-04-03 17:17:00,
2013-04-03 10:22:00,58.1,31.9,30.08,ESE,113,9.2,9.2,37,0.00,CLR,SCT,0.00,WeatherDisplay:10.37,2013-04-03 17:22:00,
2013-04-03 10:27:00,58.6,32.4,30.08,ESE,103,5.8,5.8,37,0.00,CLR,SCT,0.00,WeatherDisplay:10.37,2013-04-03 17:27:00,
2013-04-03 10:32:00,59.2,32.2,30.08,ESE,110,9.2,9.2,36,0.00,CLR,SCT,0.00,WeatherDisplay:10.37,2013-04-03 17:32:00,
2013-04-03 10:37:00,59.5,32.5,30.08,East,82,8.1,8.1,36,0.00,CLR,SCT,0.00,WeatherDisplay:10.37,2013-04-03 17:37:00,
2013-04-03 10:43:00,59.7,32.7,30.08,SE,125,9.2,9.2,36,0.00,CLR,SCT,0.00,WeatherDisplay:10.37,2013-04-03 17:43:00,
2013-04-03 10:48:00,60.1,33.0,30.08,SSE,161,8.1,8.1,36,0.00,CLR,SCT,0.00,WeatherDisplay:10.37,2013-04-03 17:48:00,
2013-04-03 10:53:00,60.3,33.2,30.08,South,177,8.1,8.1,36,0.00,CLR,SCT,0.00,WeatherDisplay:10.37,2013-04-03 17:53:00,
2013-04-03 10:58:00,60.4,33.3,30.08,SE,126,8.1,8.1,36,0.00,CLR,SCT,0.00,WeatherDisplay:10.37,2013-04-03 17:58:00,
2013-04-03 11:03:00,61.0,33.1,30.08,East,101,5.4,5.4,35,0.00,CLR,SCT,0.00,WeatherDisplay:10.37,2013-04-03 18:03:00,
2013-04-03 11:08:00,62.1,34.1,30.08,SSE,153,5.8,5.8,35,0.00,CLR,SCT,0.00,WeatherDisplay:10.37,2013-04-03 18:08:00,
2013-04-03 11:14:00,62.4,34.4,30.08,SE,127,6.9,6.9,35,0.00,CLR,SCT,0.00,WeatherDisplay:10.37,2013-04-03 18:14:00,
2013-04-03 11:19:00,62.8,34.0,30.08,NE,54,9.2,9.2,34,0.00,CLR,SCT,0.00,WeatherDisplay:10.37,2013-04-03 18:19:00,
2013-04-03 11:24:00,63.1,34.3,30.08,SSE,164,8.1,8.1,34,0.00,CLR,SCT,0.00,WeatherDisplay:10.37,2013-04-03 18:24:00,
2013-04-03 11:29:00,63.1,34.3,30.08,East,84,8.1,8.1,34,0.00,CLR,SCT,0.00,WeatherDisplay:10.37,2013-04-03 18:29:00,
2013-04-03 11:35:00,63.7,34.8,30.05,South,170,5.8,5.8,34,0.00,CLR,SCT,0.00,WeatherDisplay:10.37,2013-04-03 18:35:00,
2013-04-03 11:40:00,64.0,35.1,30.05,SE,137,5.8,5.8,34,0.00,CLR,SCT,0.00,WeatherDisplay:10.37,2013-04-03 18:40:00,
2013-04-03 11:45:00,64.4,35.4,30.05,East,101,5.8,5.8,34,0.00,CLR,SCT,0.00,WeatherDisplay:10.37,2013-04-03 18:45:00,
2013-04-03 11:50:00,64.9,35.9,30.05,East,87,8.1,8.1,34,0.00,CLR,SCT,0.00,WeatherDisplay:10.37,2013-04-03 18:50:00,
2013-04-03 11:55:00,65.5,36.4,30.05,SE,144,8.1,8.1,34,0.00,CLR,SCT,0.00,WeatherDisplay:10.37,2013-04-03 18:55:00,
2013-04-03 12:01:00,65.3,36.2,30.05,East,98,10.4,10.4,34,0.00,CLR,SCT,0.00,WeatherDisplay:10.37,2013-04-03 19:01:00,
2013-04-03 12:06:00,65.7,36.5,30.05,ESE,109,8.1,8.1,34,0.00,CLR,SCT,0.00,WeatherDisplay:10.37,2013-04-03 19:06:00,
2013-04-03 12:12:00,66.0,36.8,30.05,SSE,149,8.1,8.1,34,0.00,CLR,SCT,0.00,WeatherDisplay:10.37,2013-04-03 19:12:00,
2013-04-03 12:17:00,66.2,36.2,30.05,East,97,9.2,9.2,33,0.00,CLR,SCT,0.00,WeatherDisplay:10.37,2013-04-03 19:17:00,
2013-04-03 12:22:00,66.2,36.2,30.05,East,84,5.8,5.8,33,0.00,CLR,SCT,0.00,WeatherDisplay:10.37,2013-04-03 19:22:00,
2013-04-03 12:27:00,66.2,36.2,30.05,SSE,149,6.3,6.3,33,0.00,CLR,SCT,0.00,WeatherDisplay:10.37,2013-04-03 19:27:00,
2013-04-03 12:32:00,66.2,36.2,30.05,SE,141,5.8,5.8,33,0.00,CLR,SCT,0.00,WeatherDisplay:10.37,2013-04-03 19:32:00,
2013-04-03 12:37:00,66.6,36.5,30.05,East,96,5.8,5.8,33,0.00,CLR,SCT,0.00,WeatherDisplay:10.37,2013-04-03 19:37:00,
2013-04-03 12:43:00,67.3,37.2,30.05,SE,133,8.1,8.1,33,0.00,CLR,SCT,0.00,WeatherDisplay:10.37,2013-04-03 19:43:00,
2013-04-03 12:48:00,67.5,37.3,30.05,SSE,148,5.8,5.8,33,0.00,CLR,SCT,0.00,WeatherDisplay:10.37,2013-04-03 19:48:00,
2013-04-03 12:53:00,67.8,37.6,30.05,SSE,152,8.1,8.1,33,0.00,CLR,SCT,0.00,WeatherDisplay:10.37,2013-04-03 19:53:00,
2013-04-03 12:58:00,67.6,37.5,30.05,SSE,151,5.8,5.8,33,0.00,CLR,SCT,0.00,WeatherDisplay:10.37,2013-04-03 19:58:00,
2013-04-03 13:03:00,67.6,37.5,30.05,SE,129,6.3,6.3,33,0.00,CLR,SCT,0.00,WeatherDisplay:10.37,2013-04-03 20:03:00,
2013-04-03 13:08:00,67.8,37.6,30.02,ESE,112,6.9,6.9,33,0.00,CLR,SCT,0.00,WeatherDisplay:10.37,2013-04-03 20:08:00,
2013-04-03 13:13:00,68.2,38.0,30.02,ESE,102,8.7,8.7,33,0.00,CLR,SCT,0.00,WeatherDisplay:10.37,2013-04-03 20:13:00,
2013-04-03 13:19:00,68.5,38.3,30.02,ESE,116,5.8,5.8,33,0.00,CLR,SCT,0.00,WeatherDisplay:10.37,2013-04-03 20:19:00,
2013-04-03 13:24:00,69.1,38.8,30.02,NE,46,5.8,5.8,33,0.00,CLR,SCT,0.00,WeatherDisplay:10.37,2013-04-03 20:24:00,
2013-04-03 13:29:00,69.4,39.1,30.02,East,97,8.1,8.1,33,0.00,CLR,SCT,0.00,WeatherDisplay:10.37,2013-04-03 20:29:00,
2013-04-03 13:34:00,69.8,38.6,30.02,SSE,162,0.0,0.0,32,0.00,CLR,SCT,0.00,WeatherDisplay:10.37,2013-04-03 20:34:00,
2013-04-03 13:39:00,70.7,39.4,30.02,East,83,6.3,6.3,32,0.00,CLR,SCT,0.00,WeatherDisplay:10.37,2013-04-03 20:39:00,
2013-04-03 13:44:00,70.5,39.2,30.02,ESE,102,1.0,8.0,32,0.00,CLR,SCT,0.00,WeatherDisplay:10.37,2013-04-03 20:44:00,
2013-04-03 13:50:00,70.2,38.9,30.02,East,92,3.5,3.5,32,0.00,CLR,SCT,0.00,WeatherDisplay:10.37,2013-04-03 20:50:00,
2013-04-03 13:55:00,70.3,39.1,30.02,SE,130,5.8,5.8,32,0.00,CLR,SCT,0.00,WeatherDisplay:10.37,2013-04-03 20:55:00,
2013-04-03 14:00:00,70.5,39.2,30.02,East,80,5.8,5.8,32,0.00,CLR,SCT,0.00,WeatherDisplay:10.37,2013-04-03 21:00:00,
2013-04-03 14:05:00,71.2,39.9,30.02,NE,42,8.1,8.1,32,0.00,CLR,SCT,0.00,WeatherDisplay:10.37,2013-04-03 21:05:00,
2013-04-03 14:11:00,71.1,39.7,30.02,SE,124,5.8,5.8,32,0.00,CLR,SCT,0.00,WeatherDisplay:10.37,2013-04-03 21:11:00,
2013-04-03 14:16:00,71.4,40.0,30.02,SE,130,3.6,0.0,32,0.00,CLR,SCT,0.00,WeatherDisplay:10.37,2013-04-03 21:16:00,
2013-04-03 14:22:00,71.2,39.9,30.02,SE,127,5.8,5.8,32,0.00,CLR,SCT,0.00,WeatherDisplay:10.37,2013-04-03 21:22:00,
2013-04-03 14:27:00,71.2,39.9,30.02,ESE,104,5.8,5.8,32,0.00,CLR,SCT,0.00,WeatherDisplay:10.37,2013-04-03 21:27:00,
2013-04-03 14:32:00,71.4,40.0,30.02,SE,130,8.1,8.1,32,0.00,CLR,SCT,0.00,WeatherDisplay:10.37,2013-04-03 21:32:00,
2013-04-03 14:37:00,71.6,40.2,30.02,South,185,7.6,7.6,32,0.00,CLR,SCT,0.00,WeatherDisplay:10.37,2013-04-03 21:37:00,
2013-04-03 14:42:00,71.4,40.0,30.02,SE,131,6.9,6.9,32,0.00,CLR,SCT,0.00,WeatherDisplay:10.37,2013-04-03 21:42:00,
2013-04-03 14:47:00,72.0,40.5,30.02,SSE,163,5.8,5.8,32,0.00,CLR,SCT,0.00,WeatherDisplay:10.37,2013-04-03 21:47:00,
2013-04-03 14:52:00,72.3,40.8,29.99,NE,40,5.8,5.8,32,0.00,CLR,SCT,0.00,WeatherDisplay:10.37,2013-04-03 21:52:00,
2013-04-03 14:57:00,72.9,41.3,29.99,West,267,0.0,2.7,32,0.00,CLR,SCT,0.00,WeatherDisplay:10.37,2013-04-03 21:57:00,
2013-04-03 15:03:00,73.0,41.4,29.99,WSW,256,10.4,10.4,32,0.00,CLR,SCT,0.00,WeatherDisplay:10.37,2013-04-03 22:03:00,
2013-04-03 15:08:00,72.9,41.3,29.99,SW,219,3.5,3.5,32,0.00,CLR,SCT,0.00,WeatherDisplay:10.37,2013-04-03 22:08:00,
2013-04-03 15:13:00,72.1,40.6,29.99,NW,324,8.1,8.1,32,0.00,CLR,SCT,0.00,WeatherDisplay:10.37,2013-04-03 22:13:00,
2013-04-03 15:18:00,71.8,40.3,29.99,WNW,298,8.1,8.1,32,0.00,CLR,SCT,0.00,WeatherDisplay:10.37,2013-04-03 22:18:00,
2013-04-03 15:24:00,71.2,39.9,29.99,NNW,327,11.5,11.5,32,0.00,CLR,SCT,0.00,WeatherDisplay:10.37,2013-04-03 22:24:00,
2013-04-03 15:29:00,71.2,39.9,29.99,WNW,302,8.1,8.1,32,0.00,CLR,SCT,0.00,WeatherDisplay:10.37,2013-04-03 22:29:00,
2013-04-03 15:34:00,71.4,40.0,29.99,NNW,331,8.1,8.1,32,0.00,CLR,SCT,0.00,WeatherDisplay:10.37,2013-04-03 22:34:00,
2013-04-03 15:39:00,71.4,40.0,29.99,NNW,327,9.2,9.2,32,0.00,CLR,SCT,0.00,WeatherDisplay:10.37,2013-04-03 22:39:00,
2013-04-03 15:44:00,71.8,40.3,29.99,NNW,327,9.2,9.2,32,0.00,CLR,SCT,0.00,WeatherDisplay:10.37,2013-04-03 22:44:00,
2013-04-03 15:50:00,72.0,40.5,29.99,WNW,295,8.1,8.1,32,0.00,CLR,SCT,0.00,WeatherDisplay:10.37,2013-04-03 22:50:00,
2013-04-03 15:55:00,72.5,41.0,29.99,NW,313,10.4,10.4,32,0.00,CLR,SCT,0.00,WeatherDisplay:10.37,2013-04-03 22:55:00,
2013-04-03 16:00:00,72.7,41.1,29.99,WNW,302,8.1,8.1,32,0.00,CLR,SCT,0.00,WeatherDisplay:10.37,2013-04-03 23:00:00,
2013-04-03 16:05:00,72.5,41.0,29.99,NNW,329,12.7,12.7,32,0.00,CLR,SCT,0.00,WeatherDisplay:10.37,2013-04-03 23:05:00,
2013-04-03 16:10:00,72.1,40.6,29.99,NW,320,5.8,5.8,32,0.00,CLR,SCT,0.00,WeatherDisplay:10.37,2013-04-03 23:10:00,
2013-04-03 16:16:00,72.3,40.8,29.99,NNE,25,9.2,9.2,32,0.00,CLR,SCT,0.00,WeatherDisplay:10.37,2013-04-03 23:16:00,
2013-04-03 16:21:00,71.4,40.0,29.96,NNE,26,11.5,11.5,32,0.00,CLR,SCT,0.00,WeatherDisplay:10.37,2013-04-03 23:21:00,
2013-04-03 16:26:00,71.6,40.2,29.96,SE,135,8.1,8.1,32,0.00,CLR,SCT,0.00,WeatherDisplay:10.37,2013-04-03 23:26:00,
2013-04-03 16:31:00,71.6,40.2,29.96,NNE,12,10.4,10.4,32,0.00,CLR,SCT,0.00,WeatherDisplay:10.37,2013-04-03 23:31:00,
2013-04-03 16:37:00,71.2,39.9,29.96,NW,322,5.8,5.8,32,0.00,CLR,SCT,0.00,WeatherDisplay:10.37,2013-04-03 23:37:00,
2013-04-03 16:42:00,71.1,39.7,29.96,North,7,8.1,8.1,32,0.00,CLR,SCT,0.00,WeatherDisplay:10.37,2013-04-03 23:42:00,
2013-04-03 16:47:00,70.7,39.4,29.96,SE,128,8.1,8.1,32,0.00,CLR,SCT,0.00,WeatherDisplay:10.37,2013-04-03 23:47:00,
2013-04-03 16:52:00,70.7,39.4,29.96,North,11,8.1,8.1,32,0.00,CLR,SCT,0.00,WeatherDisplay:10.37,2013-04-03 23:52:00,
2013-04-03 16:57:00,70.3,39.1,29.96,North,0,8.1,8.1,32,0.00,CLR,SCT,0.00,WeatherDisplay:10.37,2013-04-03 23:57:00,
2013-04-03 17:02:00,70.3,39.1,29.96,NW,315,5.8,6.3,32,0.00,CLR,SCT,0.00,WeatherDisplay:10.37,2013-04-04 00:02:00,
2013-04-03 17:07:00,70.3,39.1,29.96,NNW,329,8.1,8.1,32,0.00,CLR,SCT,0.00,WeatherDisplay:10.37,2013-04-04 00:07:00,
2013-04-03 17:12:00,70.3,39.1,29.96,NW,311,6.9,6.9,32,0.00,CLR,SCT,0.00,WeatherDisplay:10.37,2013-04-04 00:12:00,
2013-04-03 17:17:00,70.3,39.1,29.96,NNW,328,8.1,8.1,32,0.00,CLR,SCT,0.00,WeatherDisplay:10.37,2013-04-04 00:17:00,
2013-04-03 17:22:00,70.2,38.9,29.96,NNE,22,5.8,5.8,32,0.00,CLR,SCT,0.00,WeatherDisplay:10.37,2013-04-04 00:22:00,
2013-04-03 17:28:00,69.8,38.6,29.96,North,0,8.1,8.1,32,0.00,CLR,SCT,0.00,WeatherDisplay:10.37,2013-04-04 00:28:00,
2013-04-03 17:33:00,69.4,39.1,29.96,North,0,9.2,9.2,33,0.00,CLR,SCT,0.00,WeatherDisplay:10.37,2013-04-04 00:33:00,
2013-04-03 17:38:00,69.1,38.8,29.96,NNW,328,5.8,5.8,33,0.00,CLR,SCT,0.00,WeatherDisplay:10.37,2013-04-04 00:38:00,
2013-04-03 17:43:00,68.7,38.4,29.96,NNW,329,9.2,9.2,33,0.00,CLR,SCT,0.00,WeatherDisplay:10.37,2013-04-04 00:43:00,
2013-04-03 17:48:00,68.5,38.3,29.96,NNW,337,5.8,5.8,33,0.00,CLR,SCT,0.00,WeatherDisplay:10.37,2013-04-04 00:48:00,
2013-04-03 17:54:00,68.0,37.8,29.96,NW,319,9.2,9.2,33,0.00,CLR,SCT,0.00,WeatherDisplay:10.37,2013-04-04 00:54:00,
2013-04-03 17:59:00,67.8,37.6,29.96,North,359,7.0,10.0,33,0.00,CLR,SCT,0.00,WeatherDisplay:10.37,2013-04-04 00:59:00,
2013-04-03 18:05:00,67.5,37.3,29.96,NW,324,8.1,8.1,33,0.00,CLR,SCT,0.00,WeatherDisplay:10.37,2013-04-04 01:05:00,
2013-04-03 18:10:00,67.3,37.2,29.96,NNW,338,8.3,8.3,33,0.00,CLR,SCT,0.00,WeatherDisplay:10.37,2013-04-04 01:10:00,
2013-04-03 18:15:00,66.9,36.9,29.96,North,353,8.1,8.1,33,0.00,CLR,SCT,0.00,WeatherDisplay:10.37,2013-04-04 01:15:00,
2013-04-03 18:20:00,66.6,36.5,29.96,NNW,333,5.8,5.8,33,0.00,CLR,SCT,0.00,WeatherDisplay:10.37,2013-04-04 01:20:00,
2013-04-03 18:26:00,66.4,36.4,29.96,NNW,345,8.1,8.1,33,0.00,CLR,SCT,0.00,WeatherDisplay:10.37,2013-04-04 01:26:00,
2013-04-03 18:31:00,66.2,36.2,29.96,North,0,5.8,5.8,33,0.00,CLR,SCT,0.00,WeatherDisplay:10.37,2013-04-04 01:31:00,
2013-04-03 18:36:00,65.8,35.9,29.93,NNW,348,8.1,8.1,33,0.00,CLR,SCT,0.00,WeatherDisplay:10.37,2013-04-04 01:36:00,
2013-04-03 18:41:00,65.5,35.6,29.93,North,349,9.2,9.2,33,0.00,CLR,SCT,0.00,WeatherDisplay:10.37,2013-04-04 01:41:00,
2013-04-03 18:47:00,65.1,35.3,29.93,NNW,337,8.1,8.1,33,0.00,CLR,SCT,0.00,WeatherDisplay:10.37,2013-04-04 01:47:00,
2013-04-03 18:52:00,64.8,35.0,29.93,NNW,332,7.6,7.6,33,0.00,CLR,SCT,0.00,WeatherDisplay:10.37,2013-04-04 01:52:00,
2013-04-03 18:57:00,64.6,34.8,29.93,SE,139,4.6,4.6,33,0.00,CLR,SCT,0.00,WeatherDisplay:10.37,2013-04-04 01:57:00,
2013-04-03 19:02:00,64.2,35.2,29.93,NE,36,5.8,5.8,34,0.00,CLR,SCT,0.00,WeatherDisplay:10.37,2013-04-04 02:02:00,
2013-04-03 19:07:00,63.9,34.9,29.93,NNW,341,5.8,5.8,34,0.00,CLR,SCT,0.00,WeatherDisplay:10.37,2013-04-04 02:07:00,
2013-04-03 19:12:00,63.5,34.6,29.93,NNW,334,5.8,5.8,34,0.00,CLR,SCT,0.00,WeatherDisplay:10.37,2013-04-04 02:12:00,
2013-04-03 19:18:00,63.1,34.3,29.93,North,357,5.8,5.8,34,0.00,CLR,SCT,0.00,WeatherDisplay:10.37,2013-04-04 02:18:00,
2013-04-03 19:23:00,62.8,34.0,29.93,NNW,343,5.8,5.8,34,0.00,CLR,SCT,0.00,WeatherDisplay:10.37,2013-04-04 02:23:00,
2013-04-03 19:28:00,62.6,33.8,29.93,NNW,339,5.8,5.8,34,0.00,CLR,SCT,0.00,WeatherDisplay:10.37,2013-04-04 02:28:00,
2013-04-03 19:33:00,62.2,33.5,29.93,NNW,335,8.1,8.1,34,0.00,CLR,SCT,0.00,WeatherDisplay:10.37,2013-04-04 02:33:00,
2013-04-03 19:38:00,61.9,33.2,29.93,NNW,334,8.1,8.1,34,0.00,CLR,SCT,0.00,WeatherDisplay:10.37,2013-04-04 02:38:00,
2013-04-03 19:44:00,61.5,32.9,29.93,North,10,5.8,5.8,34,0.00,CLR,SCT,0.00,WeatherDisplay:10.37,2013-04-04 02:44:00,
2013-04-03 19:49:00,61.2,32.5,29.93,ESE,119,8.1,8.1,34,0.00,CLR,SCT,0.00,WeatherDisplay:10.37,2013-04-04 02:49:00,
2013-04-03 19:54:00,61.0,32.4,29.93,North,353,5.8,5.8,34,0.00,CLR,SCT,0.00,WeatherDisplay:10.37,2013-04-04 02:54:00,
2013-04-03 19:59:00,60.4,32.6,29.93,NNW,333,8.1,8.1,35,0.00,CLR,SCT,0.00,WeatherDisplay:10.37,2013-04-04 02:59:00,
2013-04-03 20:04:00,60.3,32.5,29.93,SE,145,4.6,4.6,35,0.00,CLR,SCT,0.00,WeatherDisplay:10.37,2013-04-04 03:04:00,
2013-04-03 20:09:00,60.1,32.3,29.93,NNW,329,3.5,3.5,35,0.00,CLR,SCT,0.00,WeatherDisplay:10.37,2013-04-04 03:09:00,
2013-04-03 20:15:00,59.7,32.0,29.93,NNW,328,4.6,4.6,35,0.00,CLR,SCT,0.00,WeatherDisplay:10.37,2013-04-04 03:15:00,
2013-04-03 20:20:00,59.4,31.7,29.93,NNW,332,5.8,5.8,35,0.00,CLR,SCT,0.00,WeatherDisplay:10.37,2013-04-04 03:20:00,
2013-04-03 20:25:00,59.0,31.4,29.93,NNW,332,3.5,3.5,35,0.00,CLR,SCT,0.00,WeatherDisplay:10.37,2013-04-04 03:25:00,
2013-04-03 20:30:00,58.8,31.2,29.93,NNW,334,3.5,3.6,35,0.00,CLR,SCT,0.00,WeatherDisplay:10.37,2013-04-04 03:30:00,
2013-04-03 20:36:00,58.6,31.0,29.93,NNW,332,5.8,5.8,35,0.00,CLR,SCT,0.00,WeatherDisplay:10.37,2013-04-04 03:36:00,
2013-04-03 20:41:00,58.5,30.9,29.93,NNW,328,3.5,4.0,35,0.00,CLR,SCT,0.00,WeatherDisplay:10.37,2013-04-04 03:41:00,
2013-04-03 20:46:00,58.1,30.6,29.93,NNW,327,3.5,3.5,35,0.00,CLR,SCT,0.00,WeatherDisplay:10.37,2013-04-04 03:46:00,
2013-04-03 20:51:00,58.1,30.6,29.93,NNW,327,0.0,0.0,35,0.00,CLR,SCT,0.00,WeatherDisplay:10.37,2013-04-04 03:51:00,
2013-04-03 20:56:00,57.9,30.4,29.93,NNW,327,0.0,0.0,35,0.00,CLR,SCT,0.00,WeatherDisplay:10.37,2013-04-04 03:56:00,
2013-04-03 21:00:00,57.7,30.2,29.93,NW,321,2.7,0.0,35,0.00,CLR,SCT,0.00,WeatherDisplay:10.37,2013-04-04 04:00:00,
2013-04-03 21:01:00,57.7,30.2,29.93,NW,321,3.5,3.5,35,0.00,CLR,SCT,0.00,WeatherDisplay:10.37,2013-04-04 04:01:00,
2013-04-03 21:06:00,57.7,30.2,29.93,NW,321,0.0,0.0,35,0.00,CLR,SCT,0.00,WeatherDisplay:10.37,2013-04-04 04:06:00,
2013-04-03 21:12:00,57.6,30.1,29.93,NW,321,0.0,0.0,35,0.00,CLR,SCT,0.00,WeatherDisplay:10.37,2013-04-04 04:12:00,
2013-04-03 21:17:00,57.2,29.8,29.93,NW,321,0.0,0.0,35,0.00,CLR,SCT,0.00,WeatherDisplay:10.37,2013-04-04 04:17:00,
2013-04-03 21:22:00,57.0,30.3,29.93,NW,321,0.0,0.0,36,0.00,CLR,SCT,0.00,WeatherDisplay:10.37,2013-04-04 04:22:00,
2013-04-03 21:27:00,56.8,30.1,29.93,NW,321,0.0,0.0,36,0.00,CLR,SCT,0.00,WeatherDisplay:10.37,2013-04-04 04:27:00,
2013-04-03 21:32:00,56.7,30.0,29.93,NW,321,0.0,0.0,36,0.00,CLR,SCT,0.00,WeatherDisplay:10.37,2013-04-04 04:32:00,
2013-04-03 21:37:00,56.3,29.7,29.93,NW,321,3.5,0.0,36,0.00,CLR,SCT,0.00,WeatherDisplay:10.37,2013-04-04 04:37:00,
2013-04-03 21:42:00,56.3,29.7,29.93,NW,321,0.0,0.0,36,0.00,CLR,SCT,0.00,WeatherDisplay:10.37,2013-04-04 04:42:00,
2013-04-03 21:48:00,56.1,29.5,29.93,WNW,301,3.5,3.5,36,0.00,CLR,SCT,0.00,WeatherDisplay:10.37,2013-04-04 04:48:00,
2013-04-03 21:53:00,55.9,29.3,29.93,West,277,3.5,3.5,36,0.00,CLR,SCT,0.00,WeatherDisplay:10.37,2013-04-04 04:53:00,
2013-04-03 21:58:00,56.1,29.5,29.93,SW,235,3.5,3.5,36,0.00,CLR,SCT,0.00,WeatherDisplay:10.37,2013-04-04 04:58:00,
2013-04-03 22:03:00,55.9,29.3,29.93,SW,236,0.0,0.0,36,0.00,CLR,SCT,0.00,WeatherDisplay:10.37,2013-04-04 05:03:00,
2013-04-03 22:09:00,55.9,29.3,29.93,SW,233,3.6,3.6,36,0.00,CLR,SCT,0.00,WeatherDisplay:10.37,2013-04-04 05:09:00,
2013-04-03 22:14:00,55.8,29.2,29.93,SW,236,3.5,3.5,36,0.00,CLR,SCT,0.00,WeatherDisplay:10.37,2013-04-04 05:14:00,
2013-04-03 22:20:00,55.9,29.3,29.93,WSW,247,3.5,3.5,36,0.00,CLR,SCT,0.00,WeatherDisplay:10.37,2013-04-04 05:20:00,
2013-04-03 22:25:00,56.3,29.7,29.93,West,261,5.8,0.0,36,0.00,CLR,SCT,0.00,WeatherDisplay:10.37,2013-04-04 05:25:00,
2013-04-03 22:30:00,56.3,29.7,29.93,West,262,0.0,0.0,36,0.00,CLR,SCT,0.00,WeatherDisplay:10.37,2013-04-04 05:30:00,
2013-04-03 22:35:00,56.1,29.5,29.93,West,262,0.0,0.0,36,0.00,CLR,SCT,0.00,WeatherDisplay:10.37,2013-04-04 05:35:00,
2013-04-03 22:40:00,56.1,29.5,29.93,West,260,0.0,0.0,36,0.00,CLR,SCT,0.00,WeatherDisplay:10.37,2013-04-04 05:40:00,
2013-04-03 22:46:00,55.9,29.3,29.93,West,260,0.0,0.0,36,0.00,CLR,SCT,0.00,WeatherDisplay:10.37,2013-04-04 05:46:00,
2013-04-03 22:52:00,55.9,29.3,29.93,West,260,0.0,0.0,36,0.00,CLR,SCT,0.00,WeatherDisplay:10.37,2013-04-04 05:52:00,
2013-04-03 22:57:00,55.9,29.3,29.93,West,260,0.0,0.0,36,0.00,CLR,SCT,0.00,WeatherDisplay:10.37,2013-04-04 05:57:00,
2013-04-03 23:02:00,55.8,29.2,29.93,West,260,0.0,0.0,36,0.00,CLR,SCT,0.00,WeatherDisplay:10.37,2013-04-04 06:02:00,
2013-04-03 23:07:00,55.6,29.0,29.93,West,260,0.0,0.0,36,0.00,CLR,SCT,0.00,WeatherDisplay:10.37,2013-04-04 06:07:00,
2013-04-03 23:12:00,55.2,29.4,29.93,West,260,0.0,0.0,37,0.00,CLR,SCT,0.00,WeatherDisplay:10.37,2013-04-04 06:12:00,
2013-04-03 23:17:00,55.0,29.2,29.93,West,260,0.0,0.0,37,0.00,CLR,SCT,0.00,WeatherDisplay:10.37,2013-04-04 06:17:00,
2013-04-03 23:22:00,55.0,29.2,29.93,West,260,0.0,0.0,37,0.00,CLR,SCT,0.00,WeatherDisplay:10.37,2013-04-04 06:22:00,
2013-04-03 23:27:00,54.7,28.9,29.93,West,260,0.0,0.0,37,0.00,CLR,SCT,0.00,WeatherDisplay:10.37,2013-04-04 06:27:00,
2013-04-03 23:32:00,54.5,28.7,29.93,West,260,0.0,0.0,37,0.00,CLR,SCT,0.00,WeatherDisplay:10.37,2013-04-04 06:32:00,
2013-04-03 23:38:00,54.3,28.6,29.93,West,260,0.0,0.0,37,0.00,CLR,SCT,0.00,WeatherDisplay:10.37,2013-04-04 06:38:00,
2013-04-03 23:43:00,54.3,28.6,29.93,West,260,0.0,0.0,37,0.00,CLR,SCT,0.00,WeatherDisplay:10.37,2013-04-04 06:43:00,
2013-04-03 23:48:00,54.1,28.4,29.93,West,260,0.0,0.0,37,0.00,CLR,SCT,0.00,WeatherDisplay:10.37,2013-04-04 06:48:00,
2013-04-03 23:53:00,53.8,28.1,29.93,West,260,0.0,0.0,37,0.00,CLR,SCT,0.00,WeatherDisplay:10.37,2013-04-04 06:53:00,
2013-04-03 23:58:00,53.8,28.1,29.93,West,260,0.0,0.0,37,0.00,CLR,SCT,0.00,WeatherDisplay:10.37,2013-04-04 06:58:00,